TimeEST,TemperatureF,Dew PointF,Humidity,Sea Level PressureIn,VisibilityMPH,Wind Direction,Wind SpeedMPH,Gust SpeedMPH,PrecipitationIn,Events,Conditions,WindDirDegrees,DateUTC
12:15 AM,50.5,41.7,72,30.13,10.0,NNE,8.1,16.1,N/A,,Overcast,20,2012-12-12 05:15:00
12:35 AM,50.5,41.5,71,30.12,10.0,NNE,8.1,16.1,N/A,,Overcast,30,2012-12-12 05:35:00
12:55 AM,50.5,41.4,71,30.12,10.0,NNE,8.1,19.6,N/A,,Overcast,30,2012-12-12 05:55:00
1:15 AM,50.4,41.9,73,30.14,10.0,NNE,9.2,16.1,N/A,,Overcast,30,2012-12-12 06:15:00
1:35 AM,50.4,42.4,74,30.14,10.0,NNE,9.2,18.4,N/A,Rain,Light Rain,20,2012-12-12 06:35:00
1:55 AM,49.8,43.3,78,30.15,10.0,NNE,9.2,17.3,N/A,,Drizzle,30,2012-12-12 06:55:00
2:15 AM,49.5,44.1,82,30.16,10.0,NE,9.2,20.7,N/A,,Light Drizzle,40,2012-12-12 07:15:00
2:35 AM,49.1,44.2,83,30.16,10.0,NE,6.9,16.1,N/A,,Light Drizzle,40,2012-12-12 07:35:00
2:55 AM,49.1,43.9,82,30.17,10.0,NE,10.4,20.7,N/A,Rain,Light Rain,40,2012-12-12 07:55:00
3:15 AM,48.2,44.6,87,30.16,7.0,NNE,11.5,19.6,N/A,,Drizzle,30,2012-12-12 08:15:00
3:35 AM,48.2,44.8,88,30.15,10.0,NE,10.4,18.4,N/A,,Light Drizzle,40,2012-12-12 08:35:00
3:55 AM,48.6,45.3,89,30.16,10.0,NE,10.4,17.3,N/A,,Overcast,40,2012-12-12 08:55:00
4:15 AM,49.1,45.5,87,30.15,10.0,NNE,10.4,19.6,N/A,Rain,Light Rain,30,2012-12-12 09:15:00
4:35 AM,48.7,45.7,89,30.17,7.0,NNE,10.4,20.7,N/A,,Light Drizzle,20,2012-12-12 09:35:00
4:55 AM,48.6,45.9,90,30.18,10.0,North,10.4,20.7,N/A,,Overcast,10,2012-12-12 09:55:00
5:15 AM,48.4,45.5,90,30.18,10.0,NNE,13.8,23.0,N/A,,Overcast,30,2012-12-12 10:15:00
5:35 AM,48.6,45.3,89,30.18,7.0,NNE,13.8,21.9,N/A,,Overcast,30,2012-12-12 10:35:00
5:55 AM,48.2,45.3,90,30.19,7.0,NNE,12.7,20.7,N/A,,Overcast,30,2012-12-12 10:55:00
6:15 AM,48.4,45.5,90,30.19,10.0,NNE,11.5,24.2,N/A,,Overcast,20,2012-12-12 11:15:00
6:35 AM,48.9,45.5,88,30.20,10.0,NNE,12.7,19.6,N/A,,Overcast,20,2012-12-12 11:35:00
6:55 AM,48.7,45.5,89,30.20,10.0,NNE,12.7,23.0,N/A,,Light Drizzle,30,2012-12-12 11:55:00
7:15 AM,48.6,45.9,90,30.20,7.0,NNE,12.7,21.9,N/A,,Light Drizzle,20,2012-12-12 12:15:00
7:35 AM,48.6,46.0,91,30.20,7.0,NNE,13.8,21.9,N/A,,Light Drizzle,20,2012-12-12 12:35:00
7:55 AM,48.2,45.9,92,30.22,5.0,NNE,12.7,21.9,N/A,Rain,Light Rain,30,2012-12-12 12:55:00
8:15 AM,48.2,46.2,93,30.22,3.0,NNE,12.7,21.9,N/A,Rain,Rain,30,2012-12-12 13:15:00
8:35 AM,48.2,46.6,94,30.22,3.0,NNE,15.0,26.5,N/A,Rain,Light Rain,20,2012-12-12 13:35:00
8:55 AM,48.0,46.4,94,30.22,4.0,NNE,13.8,21.9,N/A,Rain,Rain,20,2012-12-12 13:55:00
9:15 AM,48.0,46.4,94,30.24,4.0,NNE,12.7,24.2,N/A,Rain,Light Rain,30,2012-12-12 14:15:00
9:35 AM,48.0,46.4,94,30.27,4.0,North,10.4,23.0,N/A,,Drizzle,10,2012-12-12 14:35:00
9:55 AM,47.7,46.4,95,30.25,4.0,NNE,11.5,21.9,N/A,Rain,Light Rain,20,2012-12-12 14:55:00
10:15 AM,47.8,46.6,95,30.25,5.0,NNE,11.5,23.0,N/A,,Light Drizzle,20,2012-12-12 15:15:00
10:35 AM,48.0,46.8,95,30.25,7.0,NNE,12.7,21.9,N/A,,Light Drizzle,30,2012-12-12 15:35:00
10:55 AM,48.2,46.6,94,30.25,5.0,NNE,12.7,25.3,N/A,Rain,Rain,20,2012-12-12 15:55:00
11:15 AM,48.2,46.6,94,30.25,3.0,NNE,13.8,21.9,N/A,Rain,Light Rain,30,2012-12-12 16:15:00
11:35 AM,48.2,46.6,94,30.27,5.0,North,9.2,19.6,N/A,Rain,Light Rain,10,2012-12-12 16:35:00
11:55 AM,48.0,46.2,93,30.26,4.0,North,12.7,25.3,N/A,,Drizzle,10,2012-12-12 16:55:00
12:15 PM,47.7,46.0,94,30.24,3.0,NNE,12.7,24.2,N/A,Rain,Light Rain,30,2012-12-12 17:15:00
12:35 PM,47.3,45.7,94,30.24,4.0,NNE,15.0,25.3,N/A,,Drizzle,30,2012-12-12 17:35:00
12:55 PM,47.7,46.2,95,30.24,4.0,NNE,12.7,24.2,N/A,Rain,Rain,20,2012-12-12 17:55:00
1:15 PM,47.8,46.2,94,30.22,2.5,NNE,12.7,23.0,N/A,Rain,Light Rain,30,2012-12-12 18:15:00
1:35 PM,48.0,46.2,93,30.22,4.0,NNE,13.8,25.3,N/A,,Light Drizzle,30,2012-12-12 18:35:00
1:55 PM,47.7,45.5,92,30.22,7.0,NNE,13.8,26.5,N/A,,Overcast,20,2012-12-12 18:55:00
2:15 PM,47.3,44.8,91,30.24,10.0,North,16.1,24.2,N/A,,Overcast,10,2012-12-12 19:15:00
2:35 PM,47.3,44.6,90,30.24,10.0,NNE,13.8,24.2,N/A,,Overcast,20,2012-12-12 19:35:00
2:55 PM,47.7,44.4,89,30.22,10.0,NNE,16.1,21.9,N/A,,Overcast,30,2012-12-12 19:55:00
3:15 PM,48.2,43.5,84,30.23,10.0,NNE,15.0,27.6,N/A,,Overcast,20,2012-12-12 20:15:00
3:35 PM,48.4,42.6,80,30.22,10.0,NNE,15.0,24.2,N/A,,Overcast,30,2012-12-12 20:35:00
3:55 PM,48.6,42.3,79,30.22,10.0,NNE,15.0,24.2,N/A,,Overcast,30,2012-12-12 20:55:00
4:15 PM,48.7,42.3,78,30.22,10.0,NNE,13.8,24.2,N/A,,Overcast,20,2012-12-12 21:15:00
4:35 PM,48.7,41.5,76,30.23,10.0,NNE,12.7,27.6,N/A,,Overcast,20,2012-12-12 21:35:00
4:55 PM,48.9,41.2,75,30.23,10.0,NNE,11.5,21.9,N/A,,Overcast,20,2012-12-12 21:55:00
5:15 PM,49.1,41.5,75,30.23,10.0,NNE,11.5,23.0,N/A,Rain,Light Rain,20,2012-12-12 22:15:00
5:35 PM,48.4,41.7,78,30.24,10.0,NNE,11.5,21.9,N/A,,Drizzle,20,2012-12-12 22:35:00
5:55 PM,48.2,42.1,79,30.25,10.0,North,15.0,23.0,N/A,Rain,Rain,10,2012-12-12 22:55:00
6:15 PM,48.0,42.4,81,30.26,10.0,NNE,11.5,23.0,N/A,Rain,Rain,20,2012-12-12 23:15:00
6:35 PM,47.8,43.2,84,30.26,7.0,NNE,12.7,24.2,N/A,Rain,Rain,20,2012-12-12 23:35:00
6:55 PM,47.5,44.2,89,30.25,7.0,NNE,12.7,20.7,N/A,Rain,Light Rain,20,2012-12-12 23:55:00
7:15 PM,47.5,45.1,92,30.26,7.0,NNE,13.8,21.9,N/A,Rain,Light Rain,20,2012-12-13 00:15:00
7:55 PM,48.2,45.7,91,30.27,7.0,NNE,11.5,20.7,N/A,Rain,Light Rain,20,2012-12-13 00:55:00
8:15 PM,48.4,45.9,91,30.26,7.0,NNE,11.5,19.6,N/A,Rain,Rain,20,2012-12-13 01:15:00
8:35 PM,48.7,46.0,90,30.25,7.0,NNE,13.8,21.9,N/A,Rain,Rain,30,2012-12-13 01:35:00
8:55 PM,49.1,46.2,90,30.24,7.0,NNE,12.7,20.7,N/A,Rain,Light Rain,30,2012-12-13 01:55:00
9:15 PM,49.3,46.2,89,30.24,10.0,NNE,12.7,25.3,N/A,,Light Drizzle,30,2012-12-13 02:15:00
9:35 PM,49.3,46.0,89,30.25,7.0,NNE,13.8,26.5,N/A,Rain,Light Rain,20,2012-12-13 02:35:00
9:55 PM,49.3,46.0,89,30.23,7.0,NNE,12.7,21.9,N/A,Rain,Light Rain,30,2012-12-13 02:55:00
10:15 PM,49.3,46.2,89,30.24,7.0,NNE,11.5,23.0,N/A,,Light Drizzle,30,2012-12-13 03:15:00
10:35 PM,49.5,46.0,88,30.22,10.0,NNE,12.7,27.6,N/A,,Light Drizzle,30,2012-12-13 03:35:00
10:55 PM,49.6,46.0,87,30.21,10.0,NNE,12.7,21.9,N/A,,Light Drizzle,20,2012-12-13 03:55:00
11:15 PM,49.5,45.9,87,30.22,10.0,NNE,13.8,24.2,N/A,,Drizzle,20,2012-12-13 04:15:00
11:35 PM,49.1,45.5,87,30.21,7.0,NNE,16.1,26.5,N/A,,Drizzle,30,2012-12-13 04:35:00
11:55 PM,48.6,45.3,89,30.22,5.0,NNE,12.7,24.2,N/A,Rain,Light Rain,20,2012-12-13 04:55:00